CW3699 Weather Reports


Display with metric or nautical units.
time (UTC)temp
F
wind
direction
speed
MPH
gust
MPH
rain 1hr
in
rain 24hr
in
rain mn
in
humidity
%
barometer
mb
20260902182909 76 54 0.0 2.0 0.00 0.02 0.02 77 1013.7
20260902182409 76 193 0.0 3.0 0.00 0.02 0.02 78 1013.7
20260902181908 75 123 0.0 2.0 0.00 0.02 0.02 80 1013.7
20260902181409 75 123 0.0 1.0 0.00 0.02 0.02 83 1013.6
20260902180909 74 163 0.0 1.0 0.00 0.02 0.02 83 1013.4
20260902175415 74 36 0.0 2.0 0.00 0.02 0.02 83 1013.1
20260902174908 74 25 0.0 2.0 0.00 0.02 0.02 83 1013.1
20260902174408 74 23 0.0 2.0 0.00 0.02 0.02 81 1013.2
20260902173914 75 52 0.0 2.0 0.00 0.02 0.02 80 1013.2
20260902173410 75 204 0.0 2.0 0.00 0.02 0.02 82 1013.3
20260902172909 75 110 0.0 2.0 0.00 0.02 0.02 82 1013.4
20260902172415 75 45 1.0 3.0 0.00 0.02 0.02 84 1013.5
20260902171910 74 113 0.0 2.0 0.00 0.02 0.02 85 1013.5
20260902171409 73 87 0.0 1.0 0.00 0.02 0.02 88 1013.5
20260902170916 73 195 0.0 2.0 0.00 0.02 0.02 85 1013.3
20260902170408 73 53 1.0 2.0 0.00 0.02 0.02 83 1013.4
20260902165412 72 40 0.0 2.0 0.00 0.02 0.02 86 1013.0
20260902164409 71 122 0.0 2.0 0.00 0.02 0.02 87 1013.2
20260902163915 71 38 1.0 2.0 0.00 0.02 0.02 89 1013.3
20260902163409 70 149 0.0 2.0 0.00 0.02 0.02 92 1013.2
20260902162411 70 331 0.0 2.0 0.00 0.02 0.02 93 1013.3
20260902161909 69 70 0.0 1.0 0.00 0.02 0.02 93 1013.3
20260902161408 69 173 0.0 2.0 0.00 0.02 0.02 95 1013.2
20260902160909 69 128 1.0 2.0 0.00 0.02 0.02 95 1013.4
20260902160408 69 99 1.0 2.0 0.00 0.02 0.02 96 1013.5
20260902155409 69 161 1.0 2.0 0.00 0.02 0.02 97 1013.2
20260902154909 69 166 1.0 2.0 0.00 0.02 0.02 97 1013.2
20260902154409 68 79 1.0 2.0 0.00 0.02 0.02 97 1013.5
20260902153909 68 132 1.0 2.0 0.00 0.02 0.02 97 1013.5
20260902153409 68 119 1.0 2.0 0.00 0.02 0.02 97 1013.7
20260902152909 68 97 1.0 3.0 0.00 0.02 0.02 97 1013.9
20260902152410 68 194 1.0 2.0 0.00 0.02 0.02 97 1013.8
20260902151909 68 160 1.0 3.0 0.00 0.02 0.02 97 1014.0
20260902150909 69 184 1.0 2.0 0.00 0.02 0.02 98 1013.2
20260902150409 69 209 1.0 2.0 0.00 0.02 0.02 98 1013.2
20260902145908 69 208 1.0 2.0 0.01 0.02 0.02 98 1013.0
20260902145409 68 251 1.0 2.0 0.01 0.02 0.02 98 1012.4
20260902144909 68 139 1.0 2.0 0.01 0.02 0.02 98 1012.5
20260902144409 68 51 1.0 2.0 0.01 0.02 0.02 98 1012.5
20260902142909 67 228 1.0 2.0 0.02 0.02 0.02 98 1011.8
20260902142409 66 91 1.0 2.0 0.02 0.02 0.02 97 1011.3
20260902141909 66 174 1.0 2.0 0.02 0.02 0.02 97 1011.3
20260902141408 66 11 0.0 2.0 0.02 0.02 0.02 97 1011.1
20260902140908 66 73 0.0 2.0 0.02 0.02 0.02 97 1012.0
20260902140409 66 142 1.0 2.0 0.02 0.02 0.02 97 1012.8
20260902135409 67 82 1.0 2.0 0.01 0.01 0.01 97 1013.6
20260902134908 67 69 1.0 2.0 0.01 0.01 0.01 97 1014.1
20260902134409 67 116 0.0 2.0 0.01 0.01 0.01 97 1014.3
20260902133908 67 146 1.0 3.0 0.00 0.00 0.00 97 1014.7
20260902132908 68 214 0.0 2.0 0.00 0.00 0.00 97 1014.9
20260902132410 68 110 0.0 1.0 0.00 0.00 0.00 97 1014.9
20260902131909 68 109 0.0 2.0 0.00 0.00 0.00 98 1014.8
20260902131410 68 119 0.0 1.0 0.00 0.00 0.00 98 1014.7
20260902130909 68 128 0.0 2.0 0.00 0.00 0.00 98 1014.6
20260902125916 68 72 0.0 1.0 0.00 0.00 0.00 98 1014.6
20260902125408 68 128 0.0 1.0 0.00 0.00 0.00 98 1014.5
20260902123908 68 83 0.0 1.0 0.00 0.00 0.00 98 1014.2
20260902123409 68 75 0.0 2.0 0.00 0.00 0.00 98 1014.0
20260902122909 68 114 0.0 2.0 0.00 0.00 0.00 98 1013.7
20260902122408 68 115 0.0 1.0 0.00 0.00 0.00 98 1013.5
20260902121909 68 136 0.0 1.0 0.00 0.00 0.00 98 1013.4
20260902121409 68 117 0.0 1.0 0.00 0.00 0.00 98 1013.2
20260902115909 67 134 0.0 1.0 0.00 0.00 0.00 98 1012.9
20260902115409 67 102 0.0 1.0 0.00 0.00 0.00 98 1012.6
20260902114909 67 123 0.0 1.0 0.00 0.00 0.00 98 1012.6
20260902114415 67 80 0.0 1.0 0.00 0.00 0.00 97 1012.6
20260902113909 67 92 0.0 1.0 0.00 0.00 0.00 97 1012.6
20260902112909 67 92 0.0 1.0 0.00 0.00 0.00 97 1012.5
20260902112409 67 102 0.0 1.0 0.00 0.00 0.00 97 1012.7
20260902111909 67 125 0.0 1.0 0.00 0.00 0.00 97 1012.8
20260902111415 67 132 0.0 1.0 0.00 0.00 0.00 97 1012.7
20260902110908 68 250 0.0 1.0 0.00 0.00 0.00 97 1012.6
20260902110409 68 60 0.0 1.0 0.00 0.00 0.00 97 1012.6
20260902105908 68 92 0.0 1.0 0.00 0.00 0.00 97 1012.6
20260902105408 68 96 0.0 1.0 0.00 0.00 0.00 97 1012.4
20260902104909 68 111 0.0 1.0 0.00 0.00 0.00 97 1012.4
20260902103909 68 152 0.0 1.0 0.00 0.00 0.00 97 1012.7
20260902103409 68 103 0.0 1.0 0.00 0.00 0.00 98 1012.6
20260902102908 68 89 0.0 1.0 0.00 0.00 0.00 98 1012.6
20260902102408 68 83 0.0 1.0 0.00 0.00 0.00 98 1012.7
20260902101909 69 128 0.0 1.0 0.00 0.00 0.00 98 1012.6
20260902101416 69 124 0.0 1.0 0.00 0.00 0.00 98 1012.5
20260902100908 69 107 0.0 1.0 0.00 0.00 0.00 98 1012.4
20260902100408 69 137 0.0 1.0 0.00 0.00 0.00 98 1012.4
20260902095408 69 65 0.0 1.0 0.00 0.00 0.00 98 1012.6
20260902094908 69 103 0.0 1.0 0.00 0.00 0.00 98 1012.4
20260902093908 69 117 0.0 1.0 0.00 0.00 0.00 98 1012.5
20260902093409 69 116 0.0 1.0 0.00 0.00 0.00 98 1012.5
20260902092909 69 106 0.0 2.0 0.00 0.00 0.00 98 1012.5
20260902092409 69 212 0.0 2.0 0.00 0.00 0.00 98 1012.4
20260902091909 68 126 0.0 1.0 0.00 0.00 0.00 98 1012.3
20260902091409 69 203 0.0 2.0 0.00 0.00 0.00 98 1012.3
20260902090909 69 128 0.0 2.0 0.00 0.00 0.00 98 1012.2
20260902090409 69 111 0.0 1.0 0.00 0.00 0.00 98 1012.2
20260902085908 69 104 0.0 1.0 0.00 0.00 0.00 98 1012.2
20260902084409 68 120 0.0 1.0 0.00 0.00 0.00 97 1012.3
20260902083909 68 125 0.0 2.0 0.00 0.00 0.00 97 1012.4
20260902083409 68 177 0.0 1.0 0.00 0.00 0.00 97 1012.3
20260902082909 68 125 0.0 1.0 0.00 0.00 0.00 97 1012.3
20260902081908 69 119 0.0 1.0 0.00 0.00 0.00 98 1012.2
20260902081409 68 118 0.0 1.0 0.00 0.00 0.00 98 1012.3
20260902080908 68 103 0.0 1.0 0.00 0.00 0.00 97 1012.2
20260902080408 68 115 0.0 0.0 0.00 0.00 0.00 98 1012.2
20260902075908 68 84 0.0 1.0 0.00 0.00 0.00 98 1012.1
20260902075408 68 92 0.0 1.0 0.00 0.00 0.00 98 1012.0
20260902074909 68 115 0.0 1.0 0.00 0.00 0.00 98 1012.0
20260902074409 68 95 0.0 1.0 0.00 0.00 0.00 98 1012.0
20260902073909 68 153 0.0 2.0 0.00 0.00 0.00 98 1012.1
20260902073409 68 124 0.0 1.0 0.00 0.00 0.00 98 1012.1
20260902072908 68 107 0.0 1.0 0.00 0.00 0.00 97 1012.1
20260902072409 68 107 0.0 1.0 0.00 0.00 0.00 97 1012.1
20260902071909 68 125 0.0 1.0 0.00 0.00 0.00 97 1012.1
20260902071408 67 107 0.0 1.0 0.00 0.00 0.00 97 1012.0
20260902070915 67 144 0.0 1.0 0.00 0.00 0.00 97 1012.1
20260902070408 67 92 0.0 1.0 0.00 0.00 0.00 97 1012.0
20260902065908 67 124 0.0 1.0 0.00 0.00 0.00 98 1012.0
20260902065408 67 92 0.0 1.0 0.00 0.00 0.00 98 1012.0
20260902064908 67 127 0.0 1.0 0.00 0.00 0.00 98 1011.9
20260902063915 67 144 0.0 1.0 0.00 0.00 0.00 97 1012.0
20260902063408 67 45 1.0 1.0 0.00 0.00 0.00 97 1011.9
20260902062408 67 85 0.0 1.0 0.00 0.00 0.00 98 1012.0
20260902061908 67 113 0.0 1.0 0.00 0.00 0.00 98 1012.0
20260902061408 66 145 0.0 1.0 0.00 0.00 0.00 97 1012.1
20260902060916 66 126 0.0 1.0 0.00 0.00 0.00 97 1012.0
20260902060408 66 165 0.0 2.0 0.00 0.00 0.00 97 1012.0
20260902055907 66 142 0.0 1.0 0.00 0.00 0.00 97 1012.0
20260902055408 66 99 1.0 2.0 0.00 0.00 0.00 97 1012.2
20260902054908 66 91 0.0 1.0 0.00 0.00 0.00 97 1012.2
20260902053409 65 76 0.0 1.0 0.00 0.00 0.00 97 1011.5
20260902052909 65 127 0.0 1.0 0.00 0.00 0.00 97 1011.4
20260902052408 65 162 0.0 1.0 0.00 0.00 0.00 97 1011.4
20260902051908 65 129 0.0 1.0 0.00 0.00 0.00 97 1011.4
20260902051408 65 112 0.0 1.0 0.00 0.00 0.00 97 1011.6
20260902050409 65 97 0.0 1.0 0.00 0.00 0.00 97 1011.7
20260902045908 65 141 0.0 1.0 0.00 0.00 0.00 97 1011.7
20260902045408 65 127 0.0 1.0 0.00 0.00 0.00 97 1011.8
20260902044408 65 130 0.0 1.0 0.00 0.00 0.00 97 1011.8
20260902043908 65 122 0.0 1.0 0.00 0.00 0.00 96 1011.9
20260902043408 65 118 0.0 1.0 0.00 0.00 0.00 96 1011.9
20260902042908 65 106 0.0 1.0 0.00 0.00 0.00 96 1011.9
20260902042408 65 110 0.0 1.0 0.00 0.00 0.00 96 1012.0
20260902041907 65 122 0.0 1.0 0.00 0.00 0.00 96 1012.0
20260902041408 65 117 0.0 1.0 0.00 0.00 0.00 96 1012.0
20260902040908 65 102 0.0 1.0 0.00 0.00 0.00 96 1012.1
20260902040408 65 116 0.0 1.0 0.00 0.00 0.00 96 1012.1
20260902035407 65 103 0.0 1.0 0.00 0.00 0.00 96 1012.1
20260902034907 65 128 0.0 1.0 0.00 0.00 0.00 96 1012.2
20260902033908 65 146 0.0 1.0 0.00 0.00 0.00 96 1012.3
20260902032908 65 157 0.0 1.0 0.00 0.00 0.00 96 1012.3
20260902031908 65 138 0.0 1.0 0.00 0.00 0.00 96 1012.3
20260902031408 65 193 0.0 1.0 0.00 0.00 0.00 96 1012.4
20260902030908 66 102 0.0 1.0 0.00 0.00 0.00 96 1012.4
20260902025908 66 119 0.0 1.0 0.00 0.00 0.00 96 1012.3
20260902025408 66 93 0.0 1.0 0.00 0.00 0.00 96 1012.3
20260902024908 66 149 0.0 1.0 0.00 0.00 0.00 96 1012.3
20260902023909 66 121 0.0 1.0 0.00 0.00 0.00 96 1012.3
20260902023408 66 142 0.0 1.0 0.00 0.00 0.00 96 1012.3
20260902022908 66 117 0.0 2.0 0.00 0.00 0.00 96 1012.4
20260902022408 66 147 0.0 2.0 0.00 0.00 0.00 95 1012.4
20260902021908 66 144 1.0 2.0 0.00 0.00 0.00 96 1012.5
20260902021407 66 105 0.0 1.0 0.00 0.00 0.00 95 1012.5
20260902020908 66 143 1.0 2.0 0.00 0.00 0.00 95 1012.6
20260902020408 66 115 0.0 1.0 0.00 0.00 0.00 95 1012.6
20260902015408 67 120 0.0 1.0 0.00 0.00 0.00 95 1012.6
20260902014908 67 149 0.0 1.0 0.00 0.00 0.00 95 1012.5
20260902014408 67 135 0.0 1.0 0.00 0.00 0.00 95 1012.6
20260902013909 67 74 0.0 1.0 0.00 0.00 0.00 95 1012.6
20260902013408 67 94 0.0 1.0 0.00 0.00 0.00 95 1012.5
20260902012909 68 61 0.0 1.0 0.00 0.00 0.00 96 1012.4
20260902012408 68 115 0.0 1.0 0.00 0.00 0.00 96 1012.4
20260902011908 68 90 0.0 1.0 0.00 0.00 0.00 96 1012.4
20260902010909 68 105 0.0 1.0 0.00 0.00 0.00 96 1012.3
20260902010408 68 136 0.0 1.0 0.00 0.00 0.00 96 1012.3
20260902005914 68 69 0.0 1.0 0.00 0.00 0.00 96 1012.2
20260902003907 68 97 0.0 1.0 0.00 0.00 0.00 95 1012.0
20260902003408 68 99 0.0 1.0 0.00 0.00 0.00 95 1012.0
20260902002908 67 42 0.0 1.0 0.00 0.00 0.00 95 1012.1
20260902002408 67 130 0.0 1.0 0.00 0.00 0.00 95 1012.1
20260902001908 67 120 0.0 1.0 0.00 0.00 0.00 95 1012.1
20260902001415 67 142 0.0 1.0 0.00 0.00 0.00 95 1012.2
20260902000908 68 75 0.0 2.0 0.00 0.00 0.00 95 1012.1
20260901235914 68 135 0.0 1.0 0.00 0.00 0.00 95 1012.2
20260901234908 67 98 1.0 2.0 0.00 0.00 0.00 95 1012.2
20260901234415 67 136 1.0 2.0 0.00 0.00 0.00 95 1012.1
20260901233907 67 108 0.0 2.0 0.00 0.00 0.00 95 1012.1
20260901233408 67 100 1.0 2.0 0.00 0.00 0.00 95 1012.2
20260901232914 67 119 1.0 2.0 0.00 0.00 0.00 94 1012.3
20260901232408 67 137 1.0 2.0 0.00 0.00 0.00 94 1012.3
20260901231408 67 136 1.0 2.0 0.00 0.00 0.00 94 1012.4
20260901230908 67 127 0.0 2.0 0.00 0.00 0.00 94 1012.4
20260901230408 67 127 0.0 2.0 0.00 0.00 0.00 93 1012.4
20260901225408 67 66 1.0 2.0 0.00 0.00 0.00 93 1012.6
20260901224908 67 74 1.0 2.0 0.00 0.00 0.00 93 1012.6
20260901224408 67 89 1.0 2.0 0.00 0.00 0.00 92 1012.7
20260901223907 68 83 1.0 2.0 0.00 0.00 0.00 91 1012.8
20260901223408 68 61 1.0 2.0 0.00 0.00 0.00 92 1012.7
20260901222914 68 60 1.0 2.0 0.00 0.00 0.00 91 1012.7
20260901221907 69 46 1.0 2.0 0.00 0.00 0.00 89 1012.7
20260901221408 69 35 1.0 2.0 0.00 0.00 0.00 89 1012.7
20260901220408 70 73 0.0 2.0 0.00 0.00 0.00 90 1012.7
20260901215908 70 46 0.0 3.0 0.00 0.00 0.00 91 1012.7
20260901215408 69 128 1.0 2.0 0.00 0.00 0.00 91 1012.7
20260901214907 69 80 1.0 2.0 0.00 0.00 0.00 91 1012.6
20260901213908 69 108 1.0 2.0 0.00 0.00 0.00 92 1012.7
20260901213408 68 101 1.0 2.0 0.00 0.00 0.00 93 1012.8
20260901212908 68 83 1.0 2.0 0.00 0.00 0.00 92 1012.9
20260901212408 68 83 1.0 3.0 0.00 0.00 0.00 91 1012.9
20260901211909 68 90 1.0 5.0 0.00 0.00 0.00 92 1013.0
20260901210908 69 58 1.0 3.0 0.00 0.00 0.00 91 1013.1
20260901205907 69 58 1.0 3.0 0.00 0.00 0.00 90 1013.2
20260901205407 70 83 1.0 3.0 0.00 0.00 0.00 88 1013.2
20260901204907 71 64 1.0 3.0 0.00 0.00 0.00 87 1013.1
20260901204407 72 54 1.0 3.0 0.00 0.00 0.00 86 1013.1
20260901203907 72 124 1.0 3.0 0.00 0.00 0.00 87 1013.2
20260901203408 72 124 1.0 3.0 0.00 0.00 0.00 87 1013.2
20260901202908 72 97 1.0 3.0 0.00 0.00 0.00 88 1013.3
20260901202407 71 113 1.0 3.0 0.00 0.00 0.00 88 1013.3
20260901201908 71 120 1.0 3.0 0.00 0.00 0.00 89 1013.2
20260901201408 71 47 1.0 3.0 0.00 0.00 0.00 88 1013.4
20260901200407 71 36 1.0 3.0 0.00 0.00 0.00 89 1013.5
20260901195907 70 54 1.0 3.0 0.00 0.00 0.00 90 1013.6
20260901195413 70 84 1.0 2.0 0.00 0.00 0.00 90 1013.7
20260901194908 70 72 1.0 3.0 0.00 0.00 0.00 89 1013.7
20260901194408 70 31 1.0 3.0 0.00 0.00 0.00 88 1013.7
20260901193913 71 40 1.0 3.0 0.00 0.00 0.00 87 1013.7
20260901193408 71 38 1.0 3.0 0.00 0.00 0.00 87 1013.7
20260901192907 71 40 1.0 3.0 0.00 0.00 0.00 86 1013.7
20260901191908 72 85 1.0 2.0 0.00 0.00 0.00 88 1013.8
20260901191408 71 36 1.0 3.0 0.00 0.00 0.00 88 1014.0
20260901190913 71 45 0.0 2.0 0.00 0.00 0.00 87 1013.9
20260901190408 72 49 1.0 3.0 0.00 0.00 0.00 86 1014.0
20260901185908 72 21 1.0 3.0 0.00 0.00 0.00 85 1014.0
20260901184907 73 27 1.0 3.0 0.00 0.00 0.00 87 1014.1
20260901184407 73 37 0.0 2.0 0.00 0.00 0.00 86 1014.2
20260901183913 72 144 1.0 3.0 0.00 0.00 0.00 87 1014.2
20260901183407 72 94 1.0 2.0 0.00 0.00 0.00 87 1014.3